Time,TemperatureF,DewpointF,PressureIn,WindDirection,WindDirectionDegrees,WindSpeedMPH,WindSpeedGustMPH,Humidity,HourlyPrecipIn,Conditions,Clouds,dailyrainin,SoftwareType,DateUTC
2013-11-15 00:02:00,61.9,59.0,29.71,NE,56,0.0,0.0,90,0.00,,,0.00,VWS V14.01,2013-11-15 05:02:00,
2013-11-15 00:03:00,61.9,59.0,29.71,NE,56,0.0,0.0,90,0.00,,,0.00,VWS V14.01,2013-11-15 05:03:00,
2013-11-15 00:08:00,62.1,59.3,29.71,NE,56,0.0,0.0,90,0.00,,,0.00,VWS V14.01,2013-11-15 05:08:00,
2013-11-15 00:13:00,62.2,59.3,29.71,NE,56,0.0,0.0,90,0.00,,,0.00,VWS V14.01,2013-11-15 05:13:00,
2013-11-15 00:18:00,61.8,58.9,29.71,NE,56,0.0,0.0,90,0.00,,,0.00,VWS V14.01,2013-11-15 05:18:00,
2013-11-15 00:23:00,62.1,59.2,29.71,NE,56,0.0,0.0,90,0.00,,,0.00,VWS V14.01,2013-11-15 05:23:00,
2013-11-15 00:28:00,61.7,58.9,29.71,NE,56,0.0,0.0,90,0.00,,,0.00,VWS V14.01,2013-11-15 05:28:00,
2013-11-15 00:33:00,61.9,59.1,29.71,NE,56,0.0,0.0,90,0.00,,,0.00,VWS V14.01,2013-11-15 05:33:00,
2013-11-15 00:38:00,62.0,59.3,29.71,NE,56,0.0,0.0,91,0.00,,,0.00,VWS V14.01,2013-11-15 05:38:00,
2013-11-15 00:43:00,62.1,59.4,29.71,NE,56,0.0,0.0,91,0.00,,,0.00,VWS V14.01,2013-11-15 05:43:00,
2013-11-15 00:48:00,62.3,59.6,29.70,NE,56,0.0,0.0,91,0.00,,,0.00,VWS V14.01,2013-11-15 05:48:00,
2013-11-15 00:53:00,62.3,59.6,29.70,NE,56,0.0,0.0,91,0.00,,,0.00,VWS V14.01,2013-11-15 05:53:00,
2013-11-15 00:58:00,62.4,59.7,29.70,NE,56,0.0,0.0,91,0.00,,,0.00,VWS V14.01,2013-11-15 05:58:00,
2013-11-15 01:03:00,62.3,59.5,29.70,NE,56,0.0,0.0,91,0.00,,,0.00,VWS V14.01,2013-11-15 06:03:00,
2013-11-15 01:08:00,62.1,59.3,29.70,NE,56,0.0,0.0,91,0.00,,,0.00,VWS V14.01,2013-11-15 06:08:00,
2013-11-15 01:13:00,62.1,59.3,29.69,NE,56,0.0,0.0,91,0.00,,,0.00,VWS V14.01,2013-11-15 06:13:00,
2013-11-15 01:18:00,62.2,59.5,29.69,NE,56,0.0,0.0,91,0.00,,,0.00,VWS V14.01,2013-11-15 06:18:00,
2013-11-15 01:23:00,62.3,59.5,29.69,NE,56,0.0,0.0,91,0.00,,,0.00,VWS V14.01,2013-11-15 06:23:00,
2013-11-15 01:28:00,62.1,59.4,29.69,NE,56,0.0,0.0,91,0.00,,,0.00,VWS V14.01,2013-11-15 06:28:00,
2013-11-15 01:33:00,62.3,59.5,29.69,NE,56,0.0,0.0,91,0.00,,,0.00,VWS V14.01,2013-11-15 06:33:00,
2013-11-15 01:38:00,62.2,59.5,29.69,NE,56,0.0,0.0,91,0.00,,,0.00,VWS V14.01,2013-11-15 06:38:00,
2013-11-15 01:43:00,62.5,59.8,29.69,NE,56,0.0,0.0,91,0.00,,,0.00,VWS V14.01,2013-11-15 06:43:00,
2013-11-15 01:48:00,62.2,59.5,29.69,NE,56,0.0,0.0,91,0.00,,,0.00,VWS V14.01,2013-11-15 06:48:00,
2013-11-15 01:53:00,62.3,59.5,29.69,NE,56,0.0,0.0,91,0.00,,,0.00,VWS V14.01,2013-11-15 06:53:00,
2013-11-15 01:58:00,62.3,59.6,29.69,NE,56,0.0,0.0,91,0.00,,,0.00,VWS V14.01,2013-11-15 06:58:00,
2013-11-15 02:03:00,62.1,59.4,29.69,NE,56,0.0,0.0,91,0.00,,,0.00,VWS V14.01,2013-11-15 07:03:00,
2013-11-15 02:08:00,62.4,59.7,29.68,NE,56,0.0,0.0,91,0.00,,,0.00,VWS V14.01,2013-11-15 07:08:00,
2013-11-15 02:13:00,62.2,59.6,29.68,NE,56,0.0,0.0,91,0.00,,,0.00,VWS V14.01,2013-11-15 07:13:00,
2013-11-15 02:17:00,62.3,59.7,29.68,NE,56,0.0,0.0,91,0.00,,,0.00,VWS V14.01,2013-11-15 07:17:00,
2013-11-15 02:22:00,62.1,59.5,29.67,NE,56,0.0,0.0,91,0.00,,,0.00,VWS V14.01,2013-11-15 07:22:00,
2013-11-15 02:27:00,62.3,59.7,29.67,NE,56,0.0,0.0,91,0.00,,,0.00,VWS V14.01,2013-11-15 07:27:00,
2013-11-15 02:32:00,62.2,59.6,29.67,NE,56,0.0,0.0,91,0.00,,,0.00,VWS V14.01,2013-11-15 07:32:00,
2013-11-15 02:37:00,62.4,59.8,29.67,NE,56,0.0,0.0,91,0.00,,,0.00,VWS V14.01,2013-11-15 07:37:00,
2013-11-15 02:42:00,62.2,59.6,29.67,NE,56,0.0,0.0,91,0.00,,,0.00,VWS V14.01,2013-11-15 07:42:00,
2013-11-15 02:47:00,62.8,60.2,29.67,NE,56,0.0,0.0,91,0.00,,,0.00,VWS V14.01,2013-11-15 07:47:00,
2013-11-15 02:52:00,62.4,59.8,29.67,NE,56,0.0,0.0,91,0.00,,,0.00,VWS V14.01,2013-11-15 07:52:00,
2013-11-15 02:57:00,62.7,60.2,29.67,NE,56,0.0,0.0,91,0.00,,,0.00,VWS V14.01,2013-11-15 07:57:00,
2013-11-15 03:02:00,62.6,60.1,29.66,NE,56,0.0,0.0,91,0.00,,,0.00,VWS V14.01,2013-11-15 08:02:00,
2013-11-15 03:07:00,62.7,60.2,29.66,NE,56,0.0,0.0,91,0.00,,,0.00,VWS V14.01,2013-11-15 08:07:00,
2013-11-15 03:12:00,62.5,59.9,29.66,NE,56,0.0,0.0,91,0.00,,,0.00,VWS V14.01,2013-11-15 08:12:00,
2013-11-15 03:17:00,62.6,60.0,29.66,NE,56,0.0,0.0,91,0.00,,,0.00,VWS V14.01,2013-11-15 08:17:00,
2013-11-15 03:22:00,62.5,60.0,29.66,NE,56,0.0,0.0,91,0.00,,,0.00,VWS V14.01,2013-11-15 08:22:00,
2013-11-15 03:27:00,62.9,60.4,29.67,NE,56,0.0,0.0,91,0.00,,,0.00,VWS V14.01,2013-11-15 08:27:00,
2013-11-15 03:32:00,62.7,60.2,29.67,NE,56,0.0,0.0,92,0.00,,,0.00,VWS V14.01,2013-11-15 08:32:00,
2013-11-15 03:37:00,62.7,60.2,29.67,NE,56,0.0,0.0,92,0.00,,,0.00,VWS V14.01,2013-11-15 08:37:00,
2013-11-15 03:42:00,62.7,60.2,29.67,NE,56,0.0,0.0,92,0.00,,,0.00,VWS V14.01,2013-11-15 08:42:00,
2013-11-15 03:47:00,62.8,60.3,29.67,NE,56,0.0,0.0,92,0.00,,,0.00,VWS V14.01,2013-11-15 08:47:00,
2013-11-15 03:52:00,62.9,60.4,29.67,NE,56,0.0,0.0,92,0.00,,,0.00,VWS V14.01,2013-11-15 08:52:00,
2013-11-15 03:57:00,62.8,60.3,29.67,NE,56,0.0,0.0,92,0.00,,,0.00,VWS V14.01,2013-11-15 08:57:00,
2013-11-15 04:03:00,62.9,60.4,29.67,NE,56,0.0,0.0,92,0.00,,,0.00,VWS V14.01,2013-11-15 09:03:00,
2013-11-15 04:08:00,62.9,60.4,29.66,NE,56,0.0,0.0,92,0.00,,,0.00,VWS V14.01,2013-11-15 09:08:00,
2013-11-15 04:13:00,63.2,60.7,29.66,NE,56,0.0,0.0,92,0.00,,,0.00,VWS V14.01,2013-11-15 09:13:00,
2013-11-15 04:18:00,63.1,60.6,29.67,NE,56,0.0,0.0,92,0.00,,,0.00,VWS V14.01,2013-11-15 09:18:00,
2013-11-15 04:23:00,62.9,60.4,29.67,NE,56,0.0,0.0,92,0.00,,,0.00,VWS V14.01,2013-11-15 09:23:00,
2013-11-15 04:28:00,62.9,60.4,29.66,NE,56,0.0,0.0,92,0.00,,,0.00,VWS V14.01,2013-11-15 09:28:00,
2013-11-15 04:32:00,62.8,60.3,29.66,NE,56,0.0,0.0,92,0.00,,,0.00,VWS V14.01,2013-11-15 09:32:00,
2013-11-15 04:37:00,62.9,60.5,29.66,NE,56,0.0,0.0,92,0.00,,,0.00,VWS V14.01,2013-11-15 09:37:00,
2013-11-15 04:42:00,63.0,60.5,29.66,NE,56,0.0,0.0,92,0.00,,,0.00,VWS V14.01,2013-11-15 09:42:00,
2013-11-15 04:47:00,62.8,60.3,29.66,NE,56,0.0,0.0,92,0.00,,,0.00,VWS V14.01,2013-11-15 09:47:00,
2013-11-15 04:52:00,62.9,60.4,29.66,NE,56,0.0,0.0,92,0.00,,,0.00,VWS V14.01,2013-11-15 09:52:00,
2013-11-15 04:57:00,62.7,60.2,29.67,NE,56,0.0,0.0,92,0.00,,,0.00,VWS V14.01,2013-11-15 09:57:00,
2013-11-15 05:02:00,62.8,60.3,29.67,NE,56,0.0,0.0,92,0.00,,,0.00,VWS V14.01,2013-11-15 10:02:00,
2013-11-15 05:07:00,62.7,60.2,29.67,NE,56,0.0,0.0,92,0.00,,,0.00,VWS V14.01,2013-11-15 10:07:00,
2013-11-15 05:12:00,62.8,60.3,29.67,NE,56,0.0,0.0,92,0.00,,,0.00,VWS V14.01,2013-11-15 10:12:00,
2013-11-15 05:17:00,62.5,60.1,29.67,NE,56,0.0,0.0,92,0.00,,,0.00,VWS V14.01,2013-11-15 10:17:00,
2013-11-15 05:22:00,62.8,60.4,29.67,NE,56,0.0,0.0,92,0.00,,,0.00,VWS V14.01,2013-11-15 10:22:00,
2013-11-15 05:27:00,62.5,60.1,29.67,NE,56,0.0,0.0,92,0.00,,,0.00,VWS V14.01,2013-11-15 10:27:00,
2013-11-15 05:32:00,62.8,60.5,29.67,NE,56,0.0,0.0,92,0.00,,,0.00,VWS V14.01,2013-11-15 10:32:00,
2013-11-15 05:37:00,62.9,60.5,29.67,NE,56,0.0,0.0,92,0.00,,,0.00,VWS V14.01,2013-11-15 10:37:00,
2013-11-15 05:42:00,62.8,60.5,29.67,NE,56,0.0,0.0,92,0.00,,,0.00,VWS V14.01,2013-11-15 10:42:00,
2013-11-15 05:47:00,62.7,60.4,29.67,NE,56,0.0,0.0,92,0.00,,,0.00,VWS V14.01,2013-11-15 10:47:00,
2013-11-15 05:52:00,62.9,60.6,29.67,NE,56,0.0,0.0,92,0.00,,,0.00,VWS V14.01,2013-11-15 10:52:00,
2013-11-15 05:57:00,62.7,60.4,29.68,NE,56,0.0,0.0,92,0.00,,,0.00,VWS V14.01,2013-11-15 10:57:00,
2013-11-15 06:02:00,63.0,60.7,29.67,NE,56,0.0,0.0,92,0.00,,,0.00,VWS V14.01,2013-11-15 11:02:00,
2013-11-15 06:07:00,62.8,60.5,29.67,NE,56,0.0,0.0,92,0.00,,,0.00,VWS V14.01,2013-11-15 11:07:00,
2013-11-15 06:12:00,63.3,61.1,29.68,NE,56,0.0,0.0,92,0.00,,,0.00,VWS V14.01,2013-11-15 11:12:00,
2013-11-15 06:17:00,63.0,60.8,29.68,NE,56,0.0,0.0,92,0.00,,,0.00,VWS V14.01,2013-11-15 11:17:00,
2013-11-15 06:22:00,63.3,61.1,29.68,NE,56,0.0,0.0,92,0.00,,,0.00,VWS V14.01,2013-11-15 11:22:00,
2013-11-15 06:27:00,63.1,60.9,29.68,NE,56,0.0,0.0,92,0.00,,,0.00,VWS V14.01,2013-11-15 11:27:00,
2013-11-15 06:32:00,63.1,60.9,29.68,NE,56,0.0,0.0,92,0.00,,,0.00,VWS V14.01,2013-11-15 11:32:00,
2013-11-15 06:37:00,63.3,61.1,29.68,NE,56,0.0,0.0,92,0.00,,,0.00,VWS V14.01,2013-11-15 11:37:00,
2013-11-15 06:42:00,63.7,61.5,29.68,NE,56,0.0,0.0,92,0.00,,,0.00,VWS V14.01,2013-11-15 11:42:00,
2013-11-15 06:47:00,63.3,61.1,29.69,NE,56,0.0,0.0,92,0.00,,,0.00,VWS V14.01,2013-11-15 11:47:00,
2013-11-15 06:52:00,63.9,61.7,29.69,NE,56,0.0,0.0,92,0.00,,,0.00,VWS V14.01,2013-11-15 11:52:00,
2013-11-15 06:57:00,63.6,61.4,29.69,NE,56,0.0,0.0,92,0.00,,,0.00,VWS V14.01,2013-11-15 11:57:00,
2013-11-15 07:02:00,63.7,61.5,29.69,NE,56,0.0,0.0,92,0.00,,,0.00,VWS V14.01,2013-11-15 12:02:00,
2013-11-15 07:07:00,63.8,61.6,29.70,NE,56,0.0,0.0,92,0.00,,,0.00,VWS V14.01,2013-11-15 12:07:00,
2013-11-15 07:12:00,64.1,61.9,29.70,NE,56,0.0,0.0,92,0.00,,,0.00,VWS V14.01,2013-11-15 12:12:00,
2013-11-15 07:17:00,63.8,61.6,29.70,NE,56,0.0,0.0,92,0.00,,,0.00,VWS V14.01,2013-11-15 12:17:00,
2013-11-15 07:22:00,64.1,61.9,29.71,NE,56,0.0,0.0,92,0.00,,,0.00,VWS V14.01,2013-11-15 12:22:00,
2013-11-15 07:27:00,64.0,61.8,29.71,NE,56,0.0,0.0,92,0.00,,,0.00,VWS V14.01,2013-11-15 12:27:00,
2013-11-15 07:32:00,64.2,62.0,29.71,NE,56,0.0,0.0,92,0.00,,,0.00,VWS V14.01,2013-11-15 12:32:00,
2013-11-15 07:37:00,64.3,62.0,29.71,NE,56,0.0,0.0,92,0.00,,,0.00,VWS V14.01,2013-11-15 12:37:00,
2013-11-15 07:42:00,64.6,62.3,29.71,NE,56,0.0,0.0,92,0.00,,,0.00,VWS V14.01,2013-11-15 12:42:00,
2013-11-15 07:47:00,64.6,62.3,29.71,NE,56,0.0,0.0,92,0.00,,,0.00,VWS V14.01,2013-11-15 12:47:00,
2013-11-15 07:52:00,64.7,62.5,29.71,NE,56,0.0,0.0,92,0.00,,,0.00,VWS V14.01,2013-11-15 12:52:00,
2013-11-15 07:57:00,65.0,62.7,29.71,NE,56,0.0,0.0,92,0.00,,,0.00,VWS V14.01,2013-11-15 12:57:00,
2013-11-15 08:02:00,65.2,62.9,29.72,NE,56,0.0,0.0,92,0.00,,,0.00,VWS V14.01,2013-11-15 13:02:00,
2013-11-15 08:03:00,65.2,63.0,29.71,NE,56,0.0,0.0,92,0.00,,,0.00,VWS V14.01,2013-11-15 13:03:00,
2013-11-15 08:04:00,65.3,63.0,29.73,NE,56,0.0,0.0,92,0.00,,,0.00,VWS V14.01,2013-11-15 13:04:00,
2013-11-15 08:06:00,65.7,63.4,29.72,NE,56,0.0,0.0,92,0.00,,,0.00,VWS V14.01,2013-11-15 13:06:00,
2013-11-15 08:08:00,65.4,63.1,29.72,NE,56,0.0,0.0,92,0.00,,,0.00,VWS V14.01,2013-11-15 13:08:00,
2013-11-15 08:10:00,65.7,63.4,29.72,NE,56,0.0,0.0,92,0.00,,,0.00,VWS V14.01,2013-11-15 13:10:00,
2013-11-15 08:12:00,65.6,63.3,29.72,NE,56,0.0,0.0,92,0.00,,,0.00,VWS V14.01,2013-11-15 13:12:00,
2013-11-15 08:13:00,65.6,63.3,29.72,NE,56,0.0,0.0,92,0.00,,,0.00,VWS V14.01,2013-11-15 13:13:00,
2013-11-15 08:14:00,65.7,63.4,29.72,NE,56,0.0,0.0,92,0.00,,,0.00,VWS V14.01,2013-11-15 13:14:00,
2013-11-15 08:16:00,65.9,63.6,29.72,NE,56,0.0,0.0,92,0.00,,,0.00,VWS V14.01,2013-11-15 13:16:00,
2013-11-15 08:18:00,65.8,63.5,29.72,NE,56,0.0,0.0,92,0.00,,,0.00,VWS V14.01,2013-11-15 13:18:00,
2013-11-15 08:20:00,66.1,63.8,29.73,NE,56,0.0,0.0,92,0.00,,,0.00,VWS V14.01,2013-11-15 13:20:00,
2013-11-15 08:22:00,66.0,63.7,29.73,NE,56,0.0,0.0,92,0.00,,,0.00,VWS V14.01,2013-11-15 13:22:00,
2013-11-15 08:23:00,66.0,63.7,29.73,NE,56,0.0,0.0,92,0.00,,,0.00,VWS V14.01,2013-11-15 13:23:00,
2013-11-15 08:24:00,66.0,63.7,29.73,NE,56,0.0,0.0,92,0.00,,,0.00,VWS V14.01,2013-11-15 13:24:00,
2013-11-15 08:26:00,66.2,63.8,29.73,NE,56,0.0,0.0,92,0.00,,,0.00,VWS V14.01,2013-11-15 13:26:00,
2013-11-15 08:28:00,66.2,63.8,29.73,NE,56,0.0,0.0,92,0.00,,,0.00,VWS V14.01,2013-11-15 13:28:00,
2013-11-15 08:30:00,66.3,63.9,29.73,NE,56,0.0,0.0,92,0.00,,,0.00,VWS V14.01,2013-11-15 13:30:00,
2013-11-15 08:32:00,66.3,63.8,29.74,NE,56,0.0,0.0,92,0.00,,,0.00,VWS V14.01,2013-11-15 13:32:00,
2013-11-15 08:33:00,66.2,63.8,29.74,NE,56,0.0,0.0,92,0.00,,,0.00,VWS V14.01,2013-11-15 13:33:00,
2013-11-15 08:34:00,66.3,63.9,29.74,NE,56,0.0,0.0,92,0.00,,,0.00,VWS V14.01,2013-11-15 13:34:00,
2013-11-15 08:36:00,66.4,64.0,29.74,NE,56,0.0,0.0,92,0.00,,,0.00,VWS V14.01,2013-11-15 13:36:00,
2013-11-15 08:38:00,66.4,64.0,29.74,NE,56,0.0,0.0,92,0.00,,,0.00,VWS V14.01,2013-11-15 13:38:00,
2013-11-15 08:40:00,66.7,64.2,29.73,NE,56,0.0,0.0,92,0.00,,,0.00,VWS V14.01,2013-11-15 13:40:00,
2013-11-15 08:42:00,66.7,64.1,29.73,NE,56,0.0,0.0,91,0.00,,,0.00,VWS V14.01,2013-11-15 13:42:00,
2013-11-15 08:43:00,66.5,63.9,29.73,NE,56,0.0,0.0,91,0.00,,,0.00,VWS V14.01,2013-11-15 13:43:00,
2013-11-15 08:44:00,66.8,64.2,29.73,NE,56,0.0,0.0,91,0.00,,,0.00,VWS V14.01,2013-11-15 13:44:00,
2013-11-15 08:46:00,66.7,64.1,29.73,NE,56,0.0,0.0,91,0.00,,,0.00,VWS V14.01,2013-11-15 13:46:00,
2013-11-15 08:48:00,66.8,64.2,29.74,NE,56,0.0,0.0,91,0.00,,,0.00,VWS V14.01,2013-11-15 13:48:00,
2013-11-15 08:50:00,66.7,64.1,29.73,NE,56,0.0,0.0,91,0.00,,,0.00,VWS V14.01,2013-11-15 13:50:00,
2013-11-15 08:52:00,66.9,64.3,29.73,NE,56,0.0,0.0,91,0.00,,,0.00,VWS V14.01,2013-11-15 13:52:00,
2013-11-15 08:53:00,66.9,64.3,29.73,NE,56,0.0,0.0,91,0.00,,,0.00,VWS V14.01,2013-11-15 13:53:00,
2013-11-15 08:54:00,67.0,64.3,29.73,NE,56,0.0,0.0,91,0.00,,,0.00,VWS V14.01,2013-11-15 13:54:00,
2013-11-15 08:56:00,67.1,64.5,29.73,NE,56,0.0,0.0,91,0.00,,,0.00,VWS V14.01,2013-11-15 13:56:00,
2013-11-15 08:57:00,67.2,64.6,29.73,NE,56,0.0,0.0,91,0.00,,,0.00,VWS V14.01,2013-11-15 13:57:00,
2013-11-15 08:58:00,67.1,64.4,29.73,NE,56,0.0,0.0,91,0.00,,,0.00,VWS V14.01,2013-11-15 13:58:00,
2013-11-15 09:00:00,67.1,64.4,29.73,NE,56,0.0,0.0,91,0.00,,,0.00,VWS V14.01,2013-11-15 14:00:00,
2013-11-15 09:02:00,67.3,64.6,29.73,NE,56,0.0,0.0,91,0.00,,,0.00,VWS V14.01,2013-11-15 14:02:00,
2013-11-15 09:04:00,67.4,64.7,29.73,NE,56,0.0,0.0,91,0.00,,,0.00,VWS V14.01,2013-11-15 14:04:00,
2013-11-15 09:06:00,67.3,64.5,29.73,NE,56,0.0,0.0,91,0.00,,,0.00,VWS V14.01,2013-11-15 14:06:00,
2013-11-15 09:07:00,67.4,64.6,29.73,NE,56,0.0,0.0,91,0.00,,,0.00,VWS V14.01,2013-11-15 14:07:00,
2013-11-15 09:08:00,67.5,64.7,29.73,NE,56,0.0,0.0,91,0.00,,,0.00,VWS V14.01,2013-11-15 14:08:00,
2013-11-15 09:10:00,67.5,64.7,29.73,NE,56,0.0,0.0,91,0.00,,,0.00,VWS V14.01,2013-11-15 14:10:00,
2013-11-15 09:12:00,67.5,64.7,29.72,NE,56,0.0,0.0,91,0.00,,,0.00,VWS V14.01,2013-11-15 14:12:00,
2013-11-15 09:14:00,67.8,65.0,29.72,NE,56,0.0,0.0,91,0.00,,,0.00,VWS V14.01,2013-11-15 14:14:00,
2013-11-15 09:16:00,67.8,65.0,29.72,NE,56,0.0,0.0,91,0.00,,,0.00,VWS V14.01,2013-11-15 14:16:00,
2013-11-15 09:17:00,67.8,65.0,29.72,NE,56,0.0,0.0,91,0.00,,,0.00,VWS V14.01,2013-11-15 14:17:00,
2013-11-15 09:18:00,67.9,65.1,29.72,NE,56,0.0,0.0,91,0.00,,,0.00,VWS V14.01,2013-11-15 14:18:00,
2013-11-15 09:20:00,67.8,65.0,29.72,NE,56,0.0,0.0,91,0.00,,,0.00,VWS V14.01,2013-11-15 14:20:00,
2013-11-15 09:22:00,67.9,65.1,29.72,NE,56,0.0,0.0,91,0.00,,,0.00,VWS V14.01,2013-11-15 14:22:00,
2013-11-15 09:24:00,68.2,65.4,29.72,NE,56,0.0,0.0,91,0.00,,,0.00,VWS V14.01,2013-11-15 14:24:00,
2013-11-15 09:26:00,68.2,65.4,29.72,NE,56,0.0,0.0,91,0.00,,,0.00,VWS V14.01,2013-11-15 14:26:00,
2013-11-15 09:27:00,68.3,65.4,29.72,NE,56,0.0,0.0,91,0.00,,,0.00,VWS V14.01,2013-11-15 14:27:00,
2013-11-15 09:28:00,68.3,65.4,29.72,NE,56,0.0,0.0,90,0.00,,,0.00,VWS V14.01,2013-11-15 14:28:00,
2013-11-15 09:30:00,68.3,65.4,29.72,NE,56,0.0,0.0,90,0.00,,,0.00,VWS V14.01,2013-11-15 14:30:00,
2013-11-15 09:32:00,68.3,65.4,29.72,NE,56,0.0,0.0,90,0.00,,,0.00,VWS V14.01,2013-11-15 14:32:00,
2013-11-15 09:34:00,68.4,65.5,29.72,NE,56,0.0,0.0,90,0.00,,,0.00,VWS V14.01,2013-11-15 14:34:00,
2013-11-15 09:36:00,68.4,65.5,29.72,NE,56,0.0,0.0,90,0.00,,,0.00,VWS V14.01,2013-11-15 14:36:00,
2013-11-15 09:37:00,68.5,65.6,29.72,NE,56,0.0,0.0,90,0.00,,,0.00,VWS V14.01,2013-11-15 14:37:00,
2013-11-15 09:38:00,68.6,65.7,29.72,NE,56,0.0,0.0,90,0.00,,,0.00,VWS V14.01,2013-11-15 14:38:00,
2013-11-15 09:40:00,68.5,65.6,29.72,NE,56,0.0,0.0,90,0.00,,,0.00,VWS V14.01,2013-11-15 14:40:00,
2013-11-15 09:42:00,68.8,65.9,29.72,NE,56,0.0,0.0,90,0.00,,,0.00,VWS V14.01,2013-11-15 14:42:00,
2013-11-15 09:44:00,68.8,65.8,29.72,NE,56,0.0,0.0,90,0.00,,,0.00,VWS V14.01,2013-11-15 14:44:00,
2013-11-15 09:46:00,69.0,66.0,29.72,NE,56,0.0,0.0,90,0.00,,,0.00,VWS V14.01,2013-11-15 14:46:00,
2013-11-15 09:47:00,69.0,66.0,29.72,NE,56,0.0,0.0,90,0.00,,,0.00,VWS V14.01,2013-11-15 14:47:00,
2013-11-15 09:48:00,69.1,66.1,29.72,NE,56,0.0,0.0,90,0.00,,,0.00,VWS V14.01,2013-11-15 14:48:00,
2013-11-15 09:50:00,69.3,66.3,29.72,NE,56,0.0,0.0,90,0.00,,,0.00,VWS V14.01,2013-11-15 14:50:00,
2013-11-15 09:52:00,69.4,66.2,29.72,NE,56,0.0,0.0,90,0.00,,,0.00,VWS V14.01,2013-11-15 14:52:00,
2013-11-15 09:54:00,69.3,65.9,29.72,NE,56,0.0,0.0,89,0.00,,,0.00,VWS V14.01,2013-11-15 14:54:00,
2013-11-15 09:56:00,69.5,66.1,29.72,NE,56,0.0,0.0,89,0.00,,,0.00,VWS V14.01,2013-11-15 14:56:00,
2013-11-15 09:57:00,69.5,66.0,29.72,NE,56,0.0,0.0,89,0.00,,,0.00,VWS V14.01,2013-11-15 14:57:00,
2013-11-15 09:58:00,69.5,65.9,29.72,NE,56,0.0,0.0,88,0.00,,,0.00,VWS V14.01,2013-11-15 14:58:00,
2013-11-15 10:00:00,69.5,65.8,29.72,NE,56,0.0,0.0,88,0.00,,,0.00,VWS V14.01,2013-11-15 15:00:00,
2013-11-15 10:02:00,69.5,65.8,29.72,NE,56,0.0,0.0,88,0.00,,,0.00,VWS V14.01,2013-11-15 15:02:00,
2013-11-15 10:04:00,69.8,66.1,29.72,NE,56,0.0,0.0,88,0.00,,,0.00,VWS V14.01,2013-11-15 15:04:00,
2013-11-15 10:06:00,69.7,65.9,29.72,NE,56,0.0,0.0,88,0.00,,,0.00,VWS V14.01,2013-11-15 15:06:00,
2013-11-15 10:07:00,69.7,65.9,29.72,NE,56,0.0,0.0,88,0.00,,,0.00,VWS V14.01,2013-11-15 15:07:00,
2013-11-15 10:08:00,69.9,66.1,29.72,NE,56,0.0,0.0,88,0.00,,,0.00,VWS V14.01,2013-11-15 15:08:00,
2013-11-15 10:10:00,70.0,66.1,29.72,NE,56,0.0,0.0,87,0.00,,,0.00,VWS V14.01,2013-11-15 15:10:00,
2013-11-15 10:12:00,70.0,66.1,29.72,NE,56,0.0,0.0,87,0.00,,,0.00,VWS V14.01,2013-11-15 15:12:00,
2013-11-15 10:14:00,70.0,66.0,29.72,NE,56,0.0,0.0,87,0.00,,,0.00,VWS V14.01,2013-11-15 15:14:00,
2013-11-15 10:16:00,70.1,66.0,29.72,NE,56,0.0,0.0,87,0.00,,,0.00,VWS V14.01,2013-11-15 15:16:00,
2013-11-15 10:17:00,70.3,66.1,29.72,NE,56,0.0,0.0,87,0.00,,,0.00,VWS V14.01,2013-11-15 15:17:00,
2013-11-15 10:18:00,70.2,66.1,29.72,NE,56,0.0,0.0,87,0.00,,,0.00,VWS V14.01,2013-11-15 15:18:00,
2013-11-15 10:20:00,70.5,66.4,29.72,NE,56,0.0,0.0,87,0.00,,,0.00,VWS V14.01,2013-11-15 15:20:00,
2013-11-15 10:22:00,70.5,66.1,29.72,NE,56,0.0,0.0,86,0.00,,,0.00,VWS V14.01,2013-11-15 15:22:00,
2013-11-15 10:24:00,70.7,66.3,29.72,NE,56,0.0,0.0,86,0.00,,,0.00,VWS V14.01,2013-11-15 15:24:00,
2013-11-15 10:26:00,70.8,66.4,29.72,NE,56,0.0,0.0,86,0.00,,,0.00,VWS V14.01,2013-11-15 15:26:00,
2013-11-15 10:27:00,70.6,66.1,29.71,NE,56,0.0,0.0,86,0.00,,,0.00,VWS V14.01,2013-11-15 15:27:00,
2013-11-15 10:28:00,70.7,66.1,29.72,NE,56,0.0,0.0,86,0.00,,,0.00,VWS V14.01,2013-11-15 15:28:00,
2013-11-15 10:30:00,71.0,66.4,29.72,NE,56,0.0,0.0,86,0.00,,,0.00,VWS V14.01,2013-11-15 15:30:00,
2013-11-15 10:32:00,70.9,66.2,29.71,NE,56,0.0,0.0,85,0.00,,,0.00,VWS V14.01,2013-11-15 15:32:00,
2013-11-15 10:34:00,71.1,66.2,29.72,NE,56,0.0,0.0,85,0.00,,,0.00,VWS V14.01,2013-11-15 15:34:00,
2013-11-15 10:36:00,71.3,66.6,29.72,NE,56,0.0,0.0,85,0.00,,,0.00,VWS V14.01,2013-11-15 15:36:00,
2013-11-15 10:37:00,71.1,66.4,29.71,NE,56,0.0,0.0,85,0.00,,,0.00,VWS V14.01,2013-11-15 15:37:00,
2013-11-15 10:38:00,71.4,66.8,29.72,NE,56,0.0,0.0,85,0.00,,,0.00,VWS V14.01,2013-11-15 15:38:00,
2013-11-15 10:40:00,71.5,66.8,29.72,NE,56,0.0,0.0,85,0.00,,,0.00,VWS V14.01,2013-11-15 15:40:00,
2013-11-15 10:42:00,71.5,66.7,29.72,NE,56,0.0,0.0,85,0.00,,,0.00,VWS V14.01,2013-11-15 15:42:00,
2013-11-15 10:44:00,71.5,66.7,29.72,NE,56,0.0,0.0,85,0.00,,,0.00,VWS V14.01,2013-11-15 15:44:00,
2013-11-15 10:46:00,71.7,66.7,29.72,NE,56,0.0,0.0,84,0.00,,,0.00,VWS V14.01,2013-11-15 15:46:00,
2013-11-15 10:47:00,71.9,66.9,29.72,NE,56,0.0,0.0,84,0.00,,,0.00,VWS V14.01,2013-11-15 15:47:00,
2013-11-15 10:48:00,71.8,66.8,29.72,NE,56,0.0,0.0,84,0.00,,,0.00,VWS V14.01,2013-11-15 15:48:00,
2013-11-15 10:50:00,71.9,66.8,29.72,NE,56,0.0,0.0,84,0.00,,,0.00,VWS V14.01,2013-11-15 15:50:00,
2013-11-15 10:52:00,72.1,67.0,29.72,NE,56,0.0,0.0,84,0.00,,,0.00,VWS V14.01,2013-11-15 15:52:00,
2013-11-15 10:54:00,72.1,66.8,29.72,NE,56,0.0,0.0,83,0.00,,,0.00,VWS V14.01,2013-11-15 15:54:00,
2013-11-15 10:56:00,72.2,66.3,29.72,NE,56,0.0,0.0,82,0.00,,,0.00,VWS V14.01,2013-11-15 15:56:00,
2013-11-15 10:57:00,72.3,66.5,29.72,NE,56,0.0,0.0,82,0.00,,,0.00,VWS V14.01,2013-11-15 15:57:00,
2013-11-15 10:58:00,72.2,66.3,29.72,NE,56,0.0,0.0,82,0.00,,,0.00,VWS V14.01,2013-11-15 15:58:00,
2013-11-15 11:00:00,72.3,66.1,29.72,NE,56,0.0,0.0,81,0.00,,,0.00,VWS V14.01,2013-11-15 16:00:00,
2013-11-15 11:02:00,72.4,66.3,29.72,NE,56,0.0,0.0,81,0.00,,,0.00,VWS V14.01,2013-11-15 16:02:00,
2013-11-15 11:04:00,72.5,66.3,29.72,NE,56,0.0,0.0,81,0.00,,,0.00,VWS V14.01,2013-11-15 16:04:00,
2013-11-15 11:06:00,72.7,66.8,29.72,NE,56,0.0,0.0,82,0.00,,,0.00,VWS V14.01,2013-11-15 16:06:00,
2013-11-15 11:07:00,72.7,66.6,29.72,NE,56,0.0,0.0,81,0.00,,,0.00,VWS V14.01,2013-11-15 16:07:00,
2013-11-15 11:08:00,72.9,66.9,29.72,NE,56,0.0,0.0,81,0.00,,,0.00,VWS V14.01,2013-11-15 16:08:00,
2013-11-15 11:10:00,72.8,66.7,29.72,NE,56,0.0,0.0,81,0.00,,,0.00,VWS V14.01,2013-11-15 16:10:00,
2013-11-15 11:12:00,72.9,66.8,29.72,NE,56,0.0,0.0,81,0.00,,,0.00,VWS V14.01,2013-11-15 16:12:00,
2013-11-15 11:14:00,73.0,66.7,29.72,NE,56,0.0,0.0,80,0.00,,,0.00,VWS V14.01,2013-11-15 16:14:00,
2013-11-15 11:16:00,73.1,66.7,29.72,NE,56,0.0,0.0,80,0.00,,,0.00,VWS V14.01,2013-11-15 16:16:00,
2013-11-15 11:17:00,73.0,66.5,29.71,NE,56,0.0,0.0,80,0.00,,,0.00,VWS V14.01,2013-11-15 16:17:00,
2013-11-15 11:18:00,73.2,66.7,29.71,NE,56,0.0,0.0,80,0.00,,,0.00,VWS V14.01,2013-11-15 16:18:00,
2013-11-15 11:22:00,73.1,66.5,29.71,NE,56,0.0,0.0,80,0.00,,,0.00,VWS V14.01,2013-11-15 16:22:00,
2013-11-15 11:28:00,73.2,66.8,29.71,NE,56,0.0,0.0,80,0.00,,,0.00,VWS V14.01,2013-11-15 16:28:00,
2013-11-15 11:33:00,73.5,67.1,29.71,NE,56,0.0,0.0,80,0.00,,,0.00,VWS V14.01,2013-11-15 16:33:00,
2013-11-15 11:38:00,73.5,67.0,29.71,NE,56,0.0,0.0,80,0.00,,,0.00,VWS V14.01,2013-11-15 16:38:00,
2013-11-15 11:43:00,73.6,67.3,29.70,NE,56,0.0,0.0,81,0.00,,,0.00,VWS V14.01,2013-11-15 16:43:00,
2013-11-15 11:48:00,74.0,67.7,29.70,NE,56,0.0,0.0,81,0.00,,,0.00,VWS V14.01,2013-11-15 16:48:00,
2013-11-15 11:53:00,74.0,67.7,29.70,NE,56,0.0,0.0,81,0.00,,,0.00,VWS V14.01,2013-11-15 16:53:00,
2013-11-15 11:58:00,74.3,67.5,29.70,NE,56,0.0,0.0,79,0.00,,,0.00,VWS V14.01,2013-11-15 16:58:00,
2013-11-15 12:03:00,74.6,68.0,29.70,NE,56,0.0,0.0,80,0.00,,,0.00,VWS V14.01,2013-11-15 17:03:00,
2013-11-15 12:08:00,74.5,68.1,29.70,NE,56,0.0,0.0,80,0.00,,,0.00,VWS V14.01,2013-11-15 17:08:00,
2013-11-15 12:13:00,74.6,68.2,29.70,NE,56,0.0,0.0,81,0.00,,,0.00,VWS V14.01,2013-11-15 17:13:00,
2013-11-15 12:18:00,74.4,68.1,29.69,NE,56,0.0,0.0,81,0.00,,,0.00,VWS V14.01,2013-11-15 17:18:00,
2013-11-15 12:23:00,74.7,68.5,29.69,NE,56,0.0,0.0,81,0.00,,,0.00,VWS V14.01,2013-11-15 17:23:00,
2013-11-15 12:28:00,75.0,68.0,29.69,NE,56,0.0,0.0,79,0.00,,,0.00,VWS V14.01,2013-11-15 17:28:00,
2013-11-15 12:33:00,75.0,68.2,29.69,NE,56,0.0,0.0,79,0.00,,,0.00,VWS V14.01,2013-11-15 17:33:00,
2013-11-15 12:38:00,75.2,68.1,29.68,NE,56,0.0,0.0,79,0.00,,,0.00,VWS V14.01,2013-11-15 17:38:00,
2013-11-15 12:43:00,75.2,67.8,29.68,NE,56,0.0,0.0,78,0.00,,,0.00,VWS V14.01,2013-11-15 17:43:00,
2013-11-15 12:48:00,75.3,68.0,29.68,NE,56,0.0,0.0,78,0.00,,,0.00,VWS V14.01,2013-11-15 17:48:00,
2013-11-15 12:53:00,75.2,67.8,29.68,NE,56,0.0,0.0,78,0.00,,,0.00,VWS V14.01,2013-11-15 17:53:00,
2013-11-15 12:58:00,75.3,67.9,29.68,NE,56,0.0,0.0,78,0.00,,,0.00,VWS V14.01,2013-11-15 17:58:00,
2013-11-15 13:03:00,75.3,68.0,29.67,NE,56,0.0,0.0,78,0.00,,,0.00,VWS V14.01,2013-11-15 18:03:00,
2013-11-15 13:08:00,75.4,68.1,29.67,NE,56,0.0,0.0,78,0.00,,,0.00,VWS V14.01,2013-11-15 18:08:00,
2013-11-15 13:13:00,75.7,68.7,29.67,NE,56,0.0,0.0,79,0.00,,,0.00,VWS V14.01,2013-11-15 18:13:00,
2013-11-15 13:18:00,75.5,68.3,29.67,NE,56,0.0,0.0,78,0.00,,,0.00,VWS V14.01,2013-11-15 18:18:00,
2013-11-15 13:23:00,75.5,68.4,29.67,NE,56,0.0,0.0,79,0.00,,,0.00,VWS V14.01,2013-11-15 18:23:00,
2013-11-15 13:28:00,75.4,68.2,29.66,NE,56,0.0,0.0,78,0.00,,,0.00,VWS V14.01,2013-11-15 18:28:00,
2013-11-15 13:33:00,75.4,68.3,29.67,NE,56,0.0,0.0,78,0.00,,,0.00,VWS V14.01,2013-11-15 18:33:00,
2013-11-15 13:38:00,75.3,68.2,29.66,NE,56,0.0,0.0,78,0.00,,,0.00,VWS V14.01,2013-11-15 18:38:00,
2013-11-15 13:43:00,75.2,68.3,29.66,NE,56,0.0,0.0,79,0.00,,,0.00,VWS V14.01,2013-11-15 18:43:00,
2013-11-15 13:48:00,75.1,68.5,29.66,NE,56,0.0,0.0,80,0.00,,,0.00,VWS V14.01,2013-11-15 18:48:00,
2013-11-15 13:53:00,75.1,68.5,29.66,NE,56,0.0,0.0,80,0.00,,,0.00,VWS V14.01,2013-11-15 18:53:00,
2013-11-15 13:58:00,75.1,68.7,29.66,NE,56,0.0,0.0,80,0.00,,,0.00,VWS V14.01,2013-11-15 18:58:00,
2013-11-15 14:03:00,75.0,68.5,29.66,NE,56,0.0,0.0,80,0.00,,,0.00,VWS V14.01,2013-11-15 19:03:00,
2013-11-15 14:08:00,74.9,68.5,29.66,NE,56,0.0,0.0,81,0.00,,,0.00,VWS V14.01,2013-11-15 19:08:00,
2013-11-15 14:13:00,75.1,68.9,29.66,NE,56,0.0,0.0,81,0.00,,,0.00,VWS V14.01,2013-11-15 19:13:00,
2013-11-15 14:18:00,75.0,68.8,29.65,NE,56,0.0,0.0,81,0.00,,,0.00,VWS V14.01,2013-11-15 19:18:00,
2013-11-15 14:23:00,75.2,69.1,29.65,West,277,0.0,0.0,81,0.00,,,0.00,VWS V14.01,2013-11-15 19:23:00,
2013-11-15 14:28:00,74.9,68.9,29.64,West,277,0.0,0.0,82,0.00,,,0.00,VWS V14.01,2013-11-15 19:28:00,
2013-11-15 14:33:00,75.1,69.1,29.64,West,277,0.0,0.0,82,0.00,,,0.00,VWS V14.01,2013-11-15 19:33:00,
2013-11-15 14:38:00,75.0,69.0,29.64,West,277,0.0,0.0,82,0.00,,,0.00,VWS V14.01,2013-11-15 19:38:00,
2013-11-15 14:43:00,75.0,69.1,29.64,West,277,0.0,0.0,82,0.00,,,0.00,VWS V14.01,2013-11-15 19:43:00,
2013-11-15 14:48:00,75.0,69.1,29.65,West,277,0.0,0.0,82,0.00,,,0.00,VWS V14.01,2013-11-15 19:48:00,
2013-11-15 14:53:00,74.7,68.6,29.65,West,277,0.0,0.0,81,0.00,,,0.00,VWS V14.01,2013-11-15 19:53:00,
2013-11-15 14:58:00,74.4,68.5,29.65,West,277,0.0,0.0,82,0.00,,,0.00,VWS V14.01,2013-11-15 19:58:00,
2013-11-15 15:03:00,74.3,68.4,29.65,West,277,0.0,0.0,82,0.00,,,0.00,VWS V14.01,2013-11-15 20:03:00,
2013-11-15 15:08:00,74.3,68.4,29.64,West,277,0.0,0.0,82,0.00,,,0.00,VWS V14.01,2013-11-15 20:08:00,
2013-11-15 15:13:00,74.1,68.4,29.64,West,277,0.0,0.0,82,0.00,,,0.00,VWS V14.01,2013-11-15 20:13:00,
2013-11-15 15:18:00,74.1,68.3,29.64,West,277,0.0,0.0,82,0.00,,,0.00,VWS V14.01,2013-11-15 20:18:00,
2013-11-15 15:23:00,74.0,68.2,29.64,West,277,0.0,0.0,82,0.00,,,0.00,VWS V14.01,2013-11-15 20:23:00,
2013-11-15 15:28:00,73.9,68.1,29.64,West,277,0.0,0.0,82,0.00,,,0.00,VWS V14.01,2013-11-15 20:28:00,
2013-11-15 15:32:00,73.9,68.1,29.65,West,277,0.0,0.0,82,0.00,,,0.00,VWS V14.01,2013-11-15 20:32:00,
2013-11-15 15:37:00,73.8,68.1,29.65,West,277,0.0,0.0,82,0.00,,,0.00,VWS V14.01,2013-11-15 20:37:00,
2013-11-15 15:42:00,73.8,68.1,29.65,West,277,0.0,0.0,82,0.00,,,0.00,VWS V14.01,2013-11-15 20:42:00,
2013-11-15 15:47:00,73.7,68.1,29.66,West,277,0.0,0.0,83,0.00,,,0.00,VWS V14.01,2013-11-15 20:47:00,
2013-11-15 15:52:00,73.7,68.2,29.66,West,277,0.0,0.0,83,0.00,,,0.00,VWS V14.01,2013-11-15 20:52:00,
2013-11-15 15:57:00,73.8,68.2,29.66,West,277,0.0,0.0,83,0.00,,,0.00,VWS V14.01,2013-11-15 20:57:00,
2013-11-15 16:02:00,73.5,68.1,29.66,West,277,0.0,0.0,83,0.00,,,0.00,VWS V14.01,2013-11-15 21:02:00,
2013-11-15 16:03:00,73.5,68.1,29.66,West,277,0.0,0.0,83,0.00,,,0.00,VWS V14.01,2013-11-15 21:03:00,
2013-11-15 16:04:00,73.4,68.1,29.66,West,277,0.0,0.0,83,0.00,,,0.00,VWS V14.01,2013-11-15 21:04:00,
2013-11-15 16:06:00,73.5,68.3,29.65,West,277,0.0,0.0,84,0.00,,,0.00,VWS V14.01,2013-11-15 21:06:00,
2013-11-15 16:08:00,73.5,68.3,29.65,West,277,0.0,0.0,84,0.00,,,0.00,VWS V14.01,2013-11-15 21:08:00,
2013-11-15 16:10:00,73.4,68.3,29.65,West,277,0.0,0.0,84,0.00,,,0.00,VWS V14.01,2013-11-15 21:10:00,
2013-11-15 16:12:00,73.4,68.3,29.65,West,277,0.0,0.0,84,0.00,,,0.00,VWS V14.01,2013-11-15 21:12:00,
2013-11-15 16:13:00,73.2,68.1,29.65,West,277,0.0,0.0,84,0.00,,,0.00,VWS V14.01,2013-11-15 21:13:00,
2013-11-15 16:14:00,73.3,68.2,29.65,West,277,0.0,0.0,84,0.00,,,0.00,VWS V14.01,2013-11-15 21:14:00,
2013-11-15 16:16:00,73.3,68.2,29.65,West,277,0.0,0.0,84,0.00,,,0.00,VWS V14.01,2013-11-15 21:16:00,
2013-11-15 16:18:00,73.2,68.2,29.65,West,277,0.0,0.0,84,0.00,,,0.00,VWS V14.01,2013-11-15 21:18:00,
2013-11-15 16:20:00,73.1,68.2,29.65,West,277,0.0,0.0,84,0.00,,,0.00,VWS V14.01,2013-11-15 21:20:00,
2013-11-15 16:22:00,73.3,68.3,29.65,West,277,0.0,0.0,84,0.00,,,0.00,VWS V14.01,2013-11-15 21:22:00,
2013-11-15 16:23:00,73.3,68.3,29.65,West,277,0.0,0.0,84,0.00,,,0.00,VWS V14.01,2013-11-15 21:23:00,
2013-11-15 16:24:00,73.2,68.3,29.65,West,277,0.0,0.0,85,0.00,,,0.00,VWS V14.01,2013-11-15 21:24:00,
2013-11-15 16:26:00,73.0,68.2,29.65,West,277,0.0,0.0,85,0.00,,,0.00,VWS V14.01,2013-11-15 21:26:00,
2013-11-15 16:28:00,73.1,68.3,29.65,West,277,0.0,0.0,85,0.00,,,0.00,VWS V14.01,2013-11-15 21:28:00,
2013-11-15 16:30:00,72.9,68.2,29.65,West,277,0.0,0.0,85,0.00,,,0.00,VWS V14.01,2013-11-15 21:30:00,
2013-11-15 16:32:00,72.9,68.3,29.65,West,277,0.0,0.0,86,0.00,,,0.00,VWS V14.01,2013-11-15 21:32:00,
2013-11-15 16:33:00,72.9,68.3,29.65,West,277,0.0,0.0,86,0.00,,,0.00,VWS V14.01,2013-11-15 21:33:00,
2013-11-15 16:34:00,73.0,68.4,29.65,West,277,0.0,0.0,86,0.00,,,0.00,VWS V14.01,2013-11-15 21:34:00,
2013-11-15 16:36:00,72.7,68.2,29.65,West,277,0.0,0.0,86,0.00,,,0.00,VWS V14.01,2013-11-15 21:36:00,
2013-11-15 16:38:00,72.7,68.3,29.65,West,277,0.0,0.0,86,0.00,,,0.00,VWS V14.01,2013-11-15 21:38:00,
2013-11-15 16:40:00,72.7,68.3,29.65,West,277,0.0,0.0,86,0.00,,,0.00,VWS V14.01,2013-11-15 21:40:00,
2013-11-15 16:42:00,72.7,68.4,29.65,West,277,0.0,0.0,86,0.00,,,0.00,VWS V14.01,2013-11-15 21:42:00,
2013-11-15 16:43:00,72.6,68.3,29.65,West,277,0.0,0.0,86,0.00,,,0.00,VWS V14.01,2013-11-15 21:43:00,
2013-11-15 16:44:00,72.6,68.4,29.65,West,277,0.0,0.0,87,0.00,,,0.00,VWS V14.01,2013-11-15 21:44:00,
2013-11-15 16:46:00,72.4,68.3,29.65,West,277,0.0,0.0,87,0.00,,,0.00,VWS V14.01,2013-11-15 21:46:00,
2013-11-15 16:48:00,72.5,68.4,29.65,West,277,0.0,0.0,87,0.00,,,0.00,VWS V14.01,2013-11-15 21:48:00,
2013-11-15 16:50:00,72.4,68.4,29.64,West,277,0.0,0.0,87,0.00,,,0.00,VWS V14.01,2013-11-15 21:50:00,
2013-11-15 16:52:00,72.5,68.6,29.64,West,277,0.0,0.0,88,0.00,,,0.00,VWS V14.01,2013-11-15 21:52:00,
2013-11-15 16:53:00,72.5,68.6,29.64,West,277,0.0,0.0,88,0.00,,,0.00,VWS V14.01,2013-11-15 21:53:00,
2013-11-15 16:54:00,72.5,68.7,29.64,West,277,0.0,0.0,88,0.00,,,0.00,VWS V14.01,2013-11-15 21:54:00,
2013-11-15 16:56:00,72.3,68.6,29.65,West,277,0.0,0.0,88,0.00,,,0.00,VWS V14.01,2013-11-15 21:56:00,
2013-11-15 16:58:00,72.2,68.5,29.65,West,277,0.0,0.0,88,0.00,,,0.00,VWS V14.01,2013-11-15 21:58:00,
2013-11-15 17:00:00,72.2,68.7,29.65,West,277,0.0,0.0,89,0.00,,,0.00,VWS V14.01,2013-11-15 22:00:00,
2013-11-15 17:02:00,72.1,68.6,29.65,West,277,0.0,0.0,89,0.00,,,0.00,VWS V14.01,2013-11-15 22:02:00,
2013-11-15 17:03:00,72.3,68.8,29.65,West,277,0.0,0.0,89,0.00,,,0.00,VWS V14.01,2013-11-15 22:03:00,
2013-11-15 17:04:00,72.4,69.0,29.65,West,277,0.0,0.0,89,0.00,,,0.00,VWS V14.01,2013-11-15 22:04:00,
2013-11-15 17:06:00,72.1,68.8,29.65,West,277,0.0,0.0,89,0.00,,,0.00,VWS V14.01,2013-11-15 22:06:00,
2013-11-15 17:08:00,72.2,68.9,29.65,West,277,0.0,0.0,90,0.00,,,0.00,VWS V14.01,2013-11-15 22:08:00,
2013-11-15 17:10:00,72.1,69.0,29.64,West,277,0.0,0.0,90,0.00,,,0.00,VWS V14.01,2013-11-15 22:10:00,
2013-11-15 17:12:00,71.9,68.8,29.64,West,277,0.0,0.0,90,0.00,,,0.00,VWS V14.01,2013-11-15 22:12:00,
2013-11-15 17:13:00,72.1,69.0,29.64,West,277,0.0,0.0,90,0.00,,,0.00,VWS V14.01,2013-11-15 22:13:00,
2013-11-15 17:14:00,71.9,68.8,29.64,West,277,0.0,0.0,90,0.00,,,0.00,VWS V14.01,2013-11-15 22:14:00,
2013-11-15 17:16:00,71.8,68.8,29.64,West,277,0.0,0.0,90,0.00,,,0.00,VWS V14.01,2013-11-15 22:16:00,
2013-11-15 17:18:00,72.0,69.0,29.64,West,277,0.0,0.0,90,0.00,,,0.00,VWS V14.01,2013-11-15 22:18:00,
2013-11-15 17:20:00,71.9,69.0,29.64,West,277,0.0,0.0,90,0.00,,,0.00,VWS V14.01,2013-11-15 22:20:00,
2013-11-15 17:22:00,71.7,68.8,29.64,West,277,0.0,0.0,91,0.00,,,0.00,VWS V14.01,2013-11-15 22:22:00,
2013-11-15 17:23:00,71.7,68.8,29.64,West,277,0.0,0.0,91,0.00,,,0.00,VWS V14.01,2013-11-15 22:23:00,
2013-11-15 17:24:00,71.7,68.8,29.64,West,277,0.0,0.0,91,0.00,,,0.00,VWS V14.01,2013-11-15 22:24:00,
2013-11-15 17:26:00,71.7,68.8,29.64,West,277,0.0,0.0,91,0.00,,,0.00,VWS V14.01,2013-11-15 22:26:00,
2013-11-15 17:28:00,71.8,68.9,29.64,West,277,0.0,0.0,91,0.00,,,0.00,VWS V14.01,2013-11-15 22:28:00,
2013-11-15 17:30:00,71.8,68.9,29.65,West,277,0.0,0.0,91,0.00,,,0.00,VWS V14.01,2013-11-15 22:30:00,
2013-11-15 17:32:00,71.7,68.9,29.65,West,277,0.0,0.0,91,0.00,,,0.00,VWS V14.01,2013-11-15 22:32:00,
2013-11-15 17:33:00,71.7,68.9,29.65,West,277,0.0,0.0,91,0.00,,,0.00,VWS V14.01,2013-11-15 22:33:00,
2013-11-15 17:34:00,71.8,69.0,29.65,West,277,0.0,0.0,91,0.00,,,0.00,VWS V14.01,2013-11-15 22:34:00,
2013-11-15 17:36:00,71.9,69.1,29.65,West,277,0.0,0.0,91,0.00,,,0.00,VWS V14.01,2013-11-15 22:36:00,
2013-11-15 17:38:00,71.7,68.9,29.65,West,277,0.0,0.0,91,0.00,,,0.00,VWS V14.01,2013-11-15 22:38:00,
2013-11-15 17:40:00,71.8,69.0,29.66,West,277,0.0,0.0,91,0.00,,,0.00,VWS V14.01,2013-11-15 22:40:00,
2013-11-15 17:42:00,71.8,69.0,29.65,West,277,0.0,0.0,91,0.00,,,0.00,VWS V14.01,2013-11-15 22:42:00,
2013-11-15 17:50:00,71.6,68.8,29.65,West,277,0.0,0.0,91,0.00,,,0.01,VWS V14.01,2013-11-15 22:50:00,
2013-11-15 17:55:00,71.5,68.7,29.65,West,277,0.0,0.0,91,0.01,,,0.01,VWS V14.01,2013-11-15 22:55:00,
2013-11-15 18:00:00,71.4,68.7,29.65,West,277,0.0,0.0,91,0.01,,,0.01,VWS V14.01,2013-11-15 23:00:00,
2013-11-15 18:05:00,71.2,68.5,29.65,West,277,0.0,0.0,91,0.01,,,0.01,VWS V14.01,2013-11-15 23:05:00,
2013-11-15 18:10:00,71.1,68.4,29.65,West,277,0.0,0.0,91,0.01,,,0.01,VWS V14.01,2013-11-15 23:10:00,
2013-11-15 18:15:00,71.0,68.3,29.65,West,277,0.0,0.0,91,0.01,,,0.01,VWS V14.01,2013-11-15 23:15:00,
2013-11-15 18:20:00,71.0,68.3,29.65,West,277,0.0,0.0,91,0.01,,,0.01,VWS V14.01,2013-11-15 23:20:00,
2013-11-15 18:25:00,70.8,68.2,29.65,West,277,0.0,0.0,91,0.01,,,0.01,VWS V14.01,2013-11-15 23:25:00,
2013-11-15 18:30:00,70.7,68.1,29.64,West,277,0.0,0.0,92,0.01,,,0.01,VWS V14.01,2013-11-15 23:30:00,
2013-11-15 18:35:00,70.7,68.1,29.64,West,277,0.0,0.0,92,0.01,,,0.01,VWS V14.01,2013-11-15 23:35:00,
2013-11-15 18:40:00,70.6,68.0,29.64,West,277,0.0,0.0,92,0.02,,,0.02,VWS V14.01,2013-11-15 23:40:00,
2013-11-15 18:45:00,70.7,68.1,29.64,West,277,0.0,0.0,92,0.02,,,0.02,VWS V14.01,2013-11-15 23:45:00,
2013-11-15 18:50:00,70.5,67.9,29.63,West,277,0.0,0.0,92,0.01,,,0.02,VWS V14.01,2013-11-15 23:50:00,
2013-11-15 18:55:00,70.5,67.9,29.63,West,277,0.0,0.0,92,0.01,,,0.02,VWS V14.01,2013-11-15 23:55:00,
2013-11-15 19:00:00,70.5,67.9,29.63,West,277,0.0,0.0,92,0.01,,,0.02,VWS V14.01,2013-11-16 00:00:00,
2013-11-15 19:05:00,70.4,67.8,29.63,West,277,0.0,0.0,91,0.01,,,0.02,VWS V14.01,2013-11-16 00:05:00,
2013-11-15 19:10:00,70.4,67.8,29.63,West,277,0.0,0.0,91,0.01,,,0.02,VWS V14.01,2013-11-16 00:10:00,
2013-11-15 19:15:00,70.3,67.7,29.63,West,277,0.0,0.0,91,0.01,,,0.02,VWS V14.01,2013-11-16 00:15:00,
2013-11-15 19:20:00,70.1,67.5,29.63,West,277,0.0,0.0,92,0.01,,,0.02,VWS V14.01,2013-11-16 00:20:00,
2013-11-15 19:25:00,69.9,67.3,29.63,West,277,0.0,0.0,92,0.01,,,0.02,VWS V14.01,2013-11-16 00:25:00,
2013-11-15 19:30:00,69.8,67.2,29.63,West,277,0.0,0.0,92,0.01,,,0.02,VWS V14.01,2013-11-16 00:30:00,
2013-11-15 19:35:00,69.7,67.2,29.63,West,277,0.0,0.0,92,0.01,,,0.02,VWS V14.01,2013-11-16 00:35:00,
2013-11-15 19:40:00,70.0,67.4,29.64,West,277,0.0,0.0,92,0.00,,,0.02,VWS V14.01,2013-11-16 00:40:00,
2013-11-15 19:45:00,69.7,67.2,29.63,West,277,0.0,0.0,92,0.00,,,0.02,VWS V14.01,2013-11-16 00:45:00,
2013-11-15 19:50:00,69.8,67.3,29.64,West,277,0.0,0.0,92,0.00,,,0.02,VWS V14.01,2013-11-16 00:50:00,
2013-11-15 19:55:00,69.9,67.3,29.64,West,277,0.0,0.0,92,0.00,,,0.02,VWS V14.01,2013-11-16 00:55:00,
2013-11-15 20:03:00,69.9,67.3,29.64,West,277,0.0,0.0,92,0.00,,,0.02,VWS V14.01,2013-11-16 01:03:00,
2013-11-15 20:08:00,69.8,67.3,29.64,West,277,0.0,0.0,92,0.00,,,0.02,VWS V14.01,2013-11-16 01:08:00,
2013-11-15 20:13:00,69.6,67.1,29.64,West,277,0.0,0.0,92,0.00,,,0.02,VWS V14.01,2013-11-16 01:13:00,
2013-11-15 20:18:00,69.7,67.2,29.64,West,277,0.0,0.0,92,0.00,,,0.02,VWS V14.01,2013-11-16 01:18:00,
2013-11-15 20:23:00,69.8,67.3,29.65,West,277,0.0,0.0,92,0.00,,,0.02,VWS V14.01,2013-11-16 01:23:00,
2013-11-15 20:28:00,69.6,67.1,29.65,West,277,0.0,0.0,92,0.00,,,0.02,VWS V14.01,2013-11-16 01:28:00,
2013-11-15 20:33:00,69.6,67.1,29.64,West,277,0.0,0.0,92,0.00,,,0.02,VWS V14.01,2013-11-16 01:33:00,
2013-11-15 20:38:00,69.6,67.1,29.64,West,277,0.0,0.0,92,0.00,,,0.02,VWS V14.01,2013-11-16 01:38:00,
2013-11-15 20:43:00,69.5,67.0,29.64,West,277,0.0,0.0,92,0.00,,,0.02,VWS V14.01,2013-11-16 01:43:00,
2013-11-15 20:48:00,69.7,67.2,29.64,West,277,0.0,0.0,92,0.00,,,0.02,VWS V14.01,2013-11-16 01:48:00,
2013-11-15 20:53:00,69.5,66.9,29.64,West,277,0.0,0.0,92,0.00,,,0.02,VWS V14.01,2013-11-16 01:53:00,
2013-11-15 20:58:00,69.5,66.9,29.64,West,277,0.0,0.0,92,0.00,,,0.02,VWS V14.01,2013-11-16 01:58:00,
2013-11-15 21:03:00,69.4,66.9,29.63,West,277,0.0,0.0,92,0.00,,,0.02,VWS V14.01,2013-11-16 02:03:00,
2013-11-15 21:08:00,69.5,67.0,29.63,West,277,0.0,0.0,92,0.00,,,0.02,VWS V14.01,2013-11-16 02:08:00,
2013-11-15 21:13:00,69.5,67.0,29.64,West,277,0.0,0.0,92,0.00,,,0.02,VWS V14.01,2013-11-16 02:13:00,
2013-11-15 21:18:00,69.5,67.1,29.65,West,277,0.0,0.0,92,0.00,,,0.02,VWS V14.01,2013-11-16 02:18:00,
2013-11-15 21:23:00,69.6,67.2,29.65,West,277,0.0,0.0,92,0.00,,,0.02,VWS V14.01,2013-11-16 02:23:00,
2013-11-15 21:27:00,69.5,67.1,29.65,West,277,0.0,0.0,92,0.00,,,0.02,VWS V14.01,2013-11-16 02:27:00,
2013-11-15 21:32:00,69.4,67.0,29.66,West,277,0.0,0.0,92,0.00,,,0.02,VWS V14.01,2013-11-16 02:32:00,
2013-11-15 21:37:00,69.4,67.0,29.66,West,277,0.0,0.0,92,0.01,,,0.03,VWS V14.01,2013-11-16 02:37:00,
2013-11-15 21:42:00,69.3,66.9,29.66,West,277,0.0,0.0,92,0.01,,,0.03,VWS V14.01,2013-11-16 02:42:00,
2013-11-15 21:47:00,69.3,66.9,29.66,West,277,0.0,0.0,92,0.01,,,0.03,VWS V14.01,2013-11-16 02:47:00,
2013-11-15 21:52:00,69.4,67.0,29.65,West,277,0.0,0.0,92,0.01,,,0.03,VWS V14.01,2013-11-16 02:52:00,
2013-11-15 21:57:00,69.1,66.8,29.65,West,277,0.0,0.0,92,0.02,,,0.04,VWS V14.01,2013-11-16 02:57:00,
2013-11-15 22:02:00,69.0,66.7,29.65,West,277,0.0,0.0,92,0.02,,,0.04,VWS V14.01,2013-11-16 03:02:00,
2013-11-15 22:07:00,68.9,66.6,29.64,West,277,0.0,0.0,92,0.03,,,0.05,VWS V14.01,2013-11-16 03:07:00,
2013-11-15 22:12:00,68.6,66.4,29.64,West,277,0.0,0.0,93,0.03,,,0.05,VWS V14.01,2013-11-16 03:12:00,
2013-11-15 22:17:00,68.7,66.5,29.64,West,277,0.0,0.0,93,0.04,,,0.06,VWS V14.01,2013-11-16 03:17:00,
2013-11-15 22:22:00,68.7,66.5,29.64,West,277,0.0,0.0,93,0.04,,,0.06,VWS V14.01,2013-11-16 03:22:00,
2013-11-15 22:27:00,68.6,66.4,29.64,West,277,0.0,0.0,93,0.05,,,0.07,VWS V14.01,2013-11-16 03:27:00,
2013-11-15 22:32:00,68.7,66.5,29.64,West,277,0.0,0.0,93,0.05,,,0.07,VWS V14.01,2013-11-16 03:32:00,
2013-11-15 22:37:00,68.6,66.4,29.64,West,277,0.0,0.0,93,0.05,,,0.07,VWS V14.01,2013-11-16 03:37:00,
2013-11-15 22:42:00,68.5,66.3,29.63,West,277,0.0,0.0,93,0.05,,,0.08,VWS V14.01,2013-11-16 03:42:00,
2013-11-15 22:47:00,68.5,66.3,29.63,West,277,0.0,0.0,93,0.05,,,0.08,VWS V14.01,2013-11-16 03:47:00,
2013-11-15 22:52:00,68.4,66.3,29.63,West,277,0.0,0.0,93,0.06,,,0.09,VWS V14.01,2013-11-16 03:52:00,
2013-11-15 22:57:00,68.6,66.5,29.63,West,277,0.0,0.0,93,0.05,,,0.09,VWS V14.01,2013-11-16 03:57:00,
2013-11-15 23:02:00,68.7,66.6,29.62,West,277,0.0,0.0,93,0.05,,,0.09,VWS V14.01,2013-11-16 04:02:00,
2013-11-15 23:07:00,68.4,66.3,29.63,West,277,0.0,0.0,93,0.04,,,0.09,VWS V14.01,2013-11-16 04:07:00,
2013-11-15 23:12:00,68.6,66.5,29.63,West,277,0.0,0.0,93,0.05,,,0.10,VWS V14.01,2013-11-16 04:12:00,
2013-11-15 23:17:00,68.6,66.5,29.63,West,277,0.0,0.0,93,0.04,,,0.10,VWS V14.01,2013-11-16 04:17:00,
2013-11-15 23:22:00,68.7,66.6,29.63,West,277,0.0,0.0,93,0.04,,,0.10,VWS V14.01,2013-11-16 04:22:00,
2013-11-15 23:27:00,68.7,66.6,29.63,West,277,0.0,0.0,93,0.03,,,0.10,VWS V14.01,2013-11-16 04:27:00,
2013-11-15 23:32:00,68.8,66.6,29.63,West,277,0.0,0.0,93,0.03,,,0.10,VWS V14.01,2013-11-16 04:32:00,
2013-11-15 23:37:00,68.8,66.6,29.63,West,277,0.0,0.0,93,0.04,,,0.11,VWS V14.01,2013-11-16 04:37:00,
2013-11-15 23:42:00,68.8,66.6,29.63,West,277,0.0,0.0,93,0.03,,,0.11,VWS V14.01,2013-11-16 04:42:00,
2013-11-15 23:47:00,68.7,66.6,29.64,West,277,0.0,0.0,93,0.04,,,0.12,VWS V14.01,2013-11-16 04:47:00,
2013-11-15 23:52:00,68.9,66.8,29.63,West,277,0.0,0.0,93,0.04,,,0.13,VWS V14.01,2013-11-16 04:52:00,
2013-11-15 23:57:00,68.7,66.6,29.63,West,277,0.0,0.0,93,0.04,,,0.13,VWS V14.01,2013-11-16 04:57:00,